User: anonymous   Login
Location: Brookview Estates
(36.0476°N, 86.6931°W)
Time: 15:57:17
(UTC+00:00)
Language:

Cosmos 2242 Rocket - Orbit

View from above orbital plane
View from above orbital plane
View from above satellite
View from above satellite

Ground track
Ground track

The orbit data is extracted from the following two-line orbital elements,

1 22627U 93024B   21164.31190813  .00000079  00000-0  77037-5 0  9992
2 22627  82.5218 186.8933 0022051 244.6296 115.2633 14.78210162517396
Epoch (UTC): 13 June 2021 07:29:08
Eccentricity: 0.0022051
inclination: 82.5218°
perigee height: 619 km
apogee height: 650 km
right ascension of ascending node: 186.8933°
argument of perigee: 244.6296°
revolutions per day: 14.78210162
mean anomaly at epoch: 115.2633°
orbit number at epoch: 51739

The dashed part of the orbit path shows where the satellite is in the earth's shadow,  

DLR